Location: Poughquag
(41.6090°N, 73.6820°W)
Time: 14:54:44
(UTC-04:00)

Explorer 11/Cluster Stage 4 - Pass Details

Date: 30 May 2020
Orbit: 467 x 1259 km, 28.8° (Epoch: 05 July)

Event Time Altitude Azimuth Distance (km) Brightness Sun altitude
Rises 07:06:52 0° 225° (SW) 3,610 9.5 16.9°
Reaches altitude 10° 07:09:55 10° 211° (SSW) 2,798 9.1 17.5°
Maximum altitude 07:15:12 23° 162° (SSE) 2,173 9.0 18.4°
Drops below altitude 10° 07:21:04 10° 114° (ESE) 3,148 10.7 19.5°
Sets 07:24:44 0° 101° (E) 4,173 11.5 20.2°
